When you browse on this site, cookies collect data to enhance your experience and personalize the content and advertising you see.
Visit our Privacy Policy to learn more. By continuing to use the site, you agree to this use of cookies and data.
  • In Italy
  • List of Countries
  • For 7 days
  • Water Temperature
  • Satellite Maps
  • Weather Map
  • Weather Widgets
  • user-avatar
    Login

    Hourly Weather Idzhewan

    Today, 18 January, Friday

    Time Temperature Precipitation Wind Pressure Humidity
    00:00 0°C° 0 mm 1 mps 690 mmHg 77%
    01:00 0°C° 0 mm 1 mps 691 mmHg 75%
    02:00 0°C° 0 mm 1 mps 691 mmHg 74%
    03:00 0°C° 0 mm 1 mps 691 mmHg 72%
    04:00 -1°C° 0 mm 1 mps 692 mmHg 71%
    05:00 -1°C° 0 mm 1 mps 692 mmHg 70%
    06:00 -3°C° 0 mm 2 mps 693 mmHg 68%
    07:00 0°C° 0 mm 1 mps 693 mmHg 66%
    08:00 +1°C° 0 mm 1 mps 694 mmHg 64%
    09:00 +1°C° 0 mm 1 mps 694 mmHg 62%
    10:00 +2°C° 0 mm 1 mps 694 mmHg 59%
    11:00 +3°C° 0 mm 2 mps 694 mmHg 56%
    12:00 +4°C° 0 mm 2 mps 694 mmHg 53%
    13:00 +5°C° 0 mm 1 mps 694 mmHg 53%
    14:00 +5°C° 0 mm 1 mps 694 mmHg 54%
    15:00 +5°C° 0 mm 1 mps 694 mmHg 54%
    16:00 +4°C° 0 mm 1 mps 694 mmHg 59%
    17:00 +2°C° 0 mm 1 mps 695 mmHg 63%
    18:00 +1°C° 0 mm 1 mps 695 mmHg 68%
    19:00 +1°C° 0 mm 1 mps 695 mmHg 67%
    20:00 -1°C° 0 mm 2 mps 696 mmHg 67%
    21:00 -2°C° 0 mm 2 mps 696 mmHg 66%
    22:00 -2°C° 0 mm 2 mps 696 mmHg 65%
    23:00 -2°C° 0 mm 2 mps 696 mmHg 63%

    Tomorrow, 19 January, Saturday

    Time Temperature Precipitation Wind Pressure Humidity
    00:00 -2°C° 0 mm 2 mps 696 mmHg 62%
    01:00 -2°C° 0 mm 2 mps 696 mmHg 61%
    02:00 -3°C° 0 mm 2 mps 696 mmHg 60%
    03:00 -3°C° 0 mm 2 mps 696 mmHg 59%
    04:00 -3°C° 0 mm 2 mps 696 mmHg 58%
    05:00 -4°C° 0 mm 3 mps 696 mmHg 58%
    06:00 -4°C° 0 mm 3 mps 695 mmHg 57%
    07:00 -2°C° 0 mm 3 mps 696 mmHg 56%
    08:00 -1°C° 0 mm 3 mps 696 mmHg 55%
    09:00 0°C° 0 mm 3 mps 696 mmHg 54%
    10:00 +2°C° 0 mm 2 mps 695 mmHg 51%
    11:00 +4°C° 0 mm 2 mps 695 mmHg 49%
    12:00 +6°C° 0 mm 1 mps 695 mmHg 46%
    13:00 +6°C° 0 mm 1 mps 694 mmHg 46%
    14:00 +7°C° 0 mm 1 mps 694 mmHg 47%
    15:00 +7°C° 0 mm 1 mps 694 mmHg 48%
    16:00 +5°C° 0 mm 1 mps 694 mmHg 51%
    17:00 +3°C° 0 mm 2 mps 694 mmHg 55%
    18:00 +1°C° 0 mm 2 mps 695 mmHg 58%
    19:00 0°C° 0 mm 3 mps 695 mmHg 56%
    20:00 -1°C° 0 mm 3 mps 695 mmHg 53%
    21:00 -1°C° 0 mm 3 mps 695 mmHg 51%
    22:00 -1°C° 0 mm 3 mps 695 mmHg 50%
    23:00 -2°C° 0 mm 3 mps 695 mmHg 48%

    Day after tomorrow, 20 January, Sunday

    Time Temperature Precipitation Wind Pressure Humidity
    00:00 -2°C° 0 mm 3 mps 695 mmHg 47%
    01:00 -2°C° 0 mm 3 mps 695 mmHg 47%
    02:00 -2°C° 0 mm 3 mps 695 mmHg 47%
    03:00 -2°C° 0 mm 3 mps 695 mmHg 47%
    04:00 -1°C° 0 mm 3 mps 695 mmHg 47%
    05:00 -1°C° 0 mm 3 mps 696 mmHg 47%
    06:00 -1°C° 0 mm 2 mps 696 mmHg 48%
    07:00 -1°C° 0 mm 2 mps 696 mmHg 48%
    08:00 +1°C° 0 mm 2 mps 696 mmHg 48%
    09:00 +2°C° 0 mm 2 mps 697 mmHg 48%
    10:00 +4°C° 0 mm 1 mps 697 mmHg 45%
    11:00 +5°C° 0 mm 1 mps 696 mmHg 42%
    12:00 +6°C° 0 mm 1 mps 696 mmHg 39%
    13:00 +6°C° 0 mm 1 mps 696 mmHg 41%
    14:00 +6°C° 0 mm 1 mps 696 mmHg 42%
    15:00 +6°C° 0 mm 1 mps 695 mmHg 43%
    16:00 +5°C° 0 mm 1 mps 695 mmHg 46%
    17:00 +4°C° 0 mm 1 mps 696 mmHg 50%
    18:00 +3°C° 0 mm 1 mps 696 mmHg 54%
    19:00 +2°C° 0 mm 1 mps 696 mmHg 54%
    20:00 +2°C° 0 mm 1 mps 697 mmHg 54%
    21:00 +1°C° 0 mm 2 mps 697 mmHg 54%
    22:00 +1°C° 0 mm 1 mps 697 mmHg 54%
    23:00 +1°C° 0 mm 1 mps 697 mmHg 53%

    21 January, Monday

    Time Temperature Precipitation Wind Pressure Humidity
    00:00 +1°C° 0 mm 1 mps 697 mmHg 52%
    01:00 0°C° 0 mm 1 mps 697 mmHg 52%
    02:00 0°C° 0 mm 1 mps 697 mmHg 51%
    03:00 0°C° 0 mm 1 mps 697 mmHg 50%
    04:00 -2°C° 0 mm 2 mps 696 mmHg 50%
    05:00 -3°C° 0 mm 2 mps 696 mmHg 50%
    06:00 -3°C° 0 mm 2 mps 696 mmHg 49%
    07:00 -2°C° 0 mm 2 mps 696 mmHg 48%
    08:00 +1°C° 0 mm 1 mps 696 mmHg 47%
    09:00 +1°C° 0 mm 1 mps 696 mmHg 46%
    10:00 +2°C° 0 mm 1 mps 696 mmHg 44%
    11:00 +4°C° 0 mm 1 mps 695 mmHg 41%
    12:00 +5°C° 0 mm 1 mps 695 mmHg 39%
    13:00 +5°C° 0 mm 1 mps 695 mmHg 40%
    14:00 +5°C° 0 mm 1 mps 694 mmHg 41%
    15:00 +5°C° 0 mm 1 mps 694 mmHg 42%
    16:00 +4°C° 0 mm 1 mps 694 mmHg 46%
    17:00 +3°C° 0 mm 1 mps 694 mmHg 50%
    18:00 +1°C° 0 mm 1 mps 694 mmHg 53%
    19:00 -1°C° 0 mm 2 mps 694 mmHg 52%
    20:00 -1°C° 0 mm 2 mps 694 mmHg 50%
    21:00 -1°C° 0 mm 2 mps 694 mmHg 49%
    22:00 -2°C° 0 mm 3 mps 694 mmHg 48%
    23:00 -2°C° 0 mm 3 mps 694 mmHg 46%

    22 January, Tuesday

    Time Temperature Precipitation Wind Pressure Humidity
    00:00 -2°C° 0 mm 3 mps 694 mmHg 45%
    01:00 -2°C° 0 mm 3 mps 694 mmHg 46%
    02:00 -2°C° 0 mm 3 mps 694 mmHg 46%
    03:00 -2°C° 0 mm 3 mps 694 mmHg 46%
    04:00 -2°C° 0 mm 3 mps 693 mmHg 47%
    05:00 -2°C° 0 mm 3 mps 693 mmHg 48%
    06:00 -2°C° 0 mm 3 mps 693 mmHg 49%
    07:00 -1°C° 0 mm 3 mps 693 mmHg 48%
    08:00 0°C° 0 mm 3 mps 694 mmHg 47%
    09:00 0°C° 0 mm 3 mps 694 mmHg 46%
    10:00 +2°C° 0 mm 3 mps 694 mmHg 44%
    11:00 +4°C° 0 mm 2 mps 693 mmHg 43%
    12:00 +6°C° 0 mm 2 mps 693 mmHg 41%
    13:00 +6°C° 0 mm 2 mps 693 mmHg 43%
    14:00 +6°C° 0 mm 2 mps 692 mmHg 44%
    15:00 +7°C° 0 mm 1 mps 692 mmHg 45%
    16:00 +6°C° 0 mm 1 mps 693 mmHg 50%
    17:00 +4°C° 0 mm 1 mps 693 mmHg 55%
    18:00 +3°C° 0 mm 1 mps 693 mmHg 59%
    19:00 +2°C° 0 mm 1 mps 693 mmHg 58%
    20:00 +1°C° 0 mm 2 mps 694 mmHg 57%
    21:00 +1°C° 0 mm 2 mps 694 mmHg 56%
    22:00 +1°C° 0 mm 1 mps 694 mmHg 56%
    23:00 +1°C° 0 mm 1 mps 694 mmHg 57%

    23 January, Wednesday

    Time Temperature Precipitation Wind Pressure Humidity
    00:00 +1°C° 0 mm 1 mps 694 mmHg 58%
    01:00 0°C° 0 mm 1 mps 694 mmHg 59%
    02:00 0°C° 0 mm 1 mps 694 mmHg 59%
    03:00 0°C° 0 mm 1 mps 694 mmHg 60%
    04:00 -1°C° 0 mm 1 mps 694 mmHg 61%
    05:00 -1°C° 0 mm 1 mps 694 mmHg 61%
    06:00 -1°C° 0 mm 1 mps 694 mmHg 61%
    07:00 -1°C° 0 mm 1 mps 695 mmHg 59%
    08:00 0°C° 0 mm 1 mps 695 mmHg 57%
    09:00 +1°C° 0 mm 1 mps 695 mmHg 55%
    10:00 +2°C° 0 mm 1 mps 695 mmHg 54%
    11:00 +3°C° 0 mm 1 mps 695 mmHg 53%
    12:00 +4°C° 0 mm 1 mps 694 mmHg 52%
    13:00 +4°C° 0 mm 1 mps 694 mmHg 53%
    14:00 +4°C° 0 mm 1 mps 694 mmHg 55%
    15:00 +4°C° 0 mm 1 mps 693 mmHg 57%
    16:00 +3°C° 0 mm 1 mps 694 mmHg 63%
    17:00 +2°C° 0 mm 1 mps 694 mmHg 69%
    18:00 +1°C° 0 mm 1 mps 694 mmHg 75%
    19:00 0°C° 0 mm 1 mps 694 mmHg 73%
    20:00 0°C° 0 mm 1 mps 695 mmHg 71%
    21:00 0°C° 0 mm 1 mps 695 mmHg 69%
    22:00 0°C° 0 mm 1 mps 695 mmHg 69%
    23:00 0°C° 0 mm 1 mps 695 mmHg 68%
    Show more